This is the latest recevied weather packets stored in our database for station/object VR2HK-13. If no packets are shown the sender has not sent any weather packets the latest 1 day(s).
| Time | Temp. | Humidity | Pressure | Rain* | Wind** | Luminosity | Snow |
|---|---|---|---|---|---|---|---|
| 1778030403 | 22.78° C | 83% | 1014.1 hPa | 0 mm | 0.45 m/s, 252° | - | - |
| 1778030235 | 22.78° C | 83% | 1014.1 hPa | 0 mm | 1.34 m/s, 30° | - | - |
| 1778030104 | 22.78° C | 83% | 1014.1 hPa | 0 mm | 2.68 m/s, 215° | - | - |
| 1778029925 | 23.33° C | 84% | 1014.1 hPa | 0 mm | 0.45 m/s, 287° | - | - |
| 1778029804 | 22.78° C | 84% | 1014.1 hPa | 0 mm | 0.45 m/s, 181° | - | - |
| 1778029615 | 22.78° C | 84% | 1014.1 hPa | 0 mm | 0 m/s | - | - |
| 1778029504 | 22.78° C | 84% | 1014.1 hPa | 0 mm | 1.34 m/s, 284° | - | - |
| 1778029305 | 22.78° C | 85% | 1014.1 hPa | 0 mm | 0 m/s | - | - |
| 1778029204 | 22.78° C | 84% | 1014.1 hPa | 0 mm | 0.45 m/s, 261° | - | - |
| 1778028995 | 22.78° C | 85% | 1014 hPa | 0 mm | 0.45 m/s, 43° | - | - |
| 1778028903 | 22.78° C | 85% | 1014.1 hPa | 0 mm | 0.45 m/s, 346° | - | - |
| 1778028685 | 22.22° C | 85% | 1014.1 hPa | 0 mm | 2.68 m/s, 20° | - | - |
| 1778028604 | 22.22° C | 85% | 1014.1 hPa | 0 mm | 1.79 m/s, 71° | - | - |
| 1778028375 | 22.22° C | 85% | 1014.1 hPa | 0 mm | 0.89 m/s, 55° | - | - |
| 1778028303 | 22.22° C | 85% | 1014.1 hPa | 0 mm | 0 m/s | - | - |
| 1778028065 | 22.22° C | 85% | 1014.1 hPa | 0 mm | 1.79 m/s, 78° | - | - |
| 1778028003 | 22.22° C | 85% | 1014.2 hPa | 0 mm | 2.24 m/s, 54° | - | - |
| 1778027755 | 22.22° C | 85% | 1014.2 hPa | 0 mm | 0.45 m/s, 39° | - | - |
| 1778027704 | 22.22° C | 85% | 1014.1 hPa | 0 mm | 0.45 m/s, 293° | - | - |
| 1778027444 | 22.22° C | 85% | 1014.1 hPa | 0 mm | 2.68 m/s, 241° | - | - |
| 1778027403 | 22.22° C | 85% | 1014.1 hPa | 0 mm | 2.68 m/s, 230° | - | - |
| 1778027103 | 22.22° C | 85% | 1014 hPa | 0 mm | 0.45 m/s, 245° | - | - |
| 1778026824 | 22.22° C | 85% | 1013.9 hPa | 0 mm | 0 m/s | - | - |
| 1778026804 | 22.22° C | 85% | 1013.9 hPa | 0 mm | 0 m/s | - | - |
| 1778026515 | 22.22° C | 85% | 1013.9 hPa | 0 mm | 0 m/s | - | - |
* Rain latest hour (hover to see other rain measurements)
** Current wind speed in m/s (hover to see current wind gust speed)